Weather in Dobryanka

Russia / Ryazan Oblast     54°40′55″N   40°52′14″E
temp.,
°C
wind,
m/s
gust,
m/s
humid.,
%
clouds,
%
prec.,
mm/h
press.,
hPa
HPBL,
m
7 march, sun
sun700:00−12w23930 0.0 101483
03:00−14sw36920 0.0 1013132
06:00−12ssw499333 0.0 1010251
09:00−8ssw7158367 0.0 1006786
12:00−5sw71592100 1.5 10011154
15:00−4sw71493100 4.1 9971191
18:00−3sw61394100 2.4 9941074
21:00−1w61191100 3.8 992847
8 march, mon
mon800:00−8wsw399551 0.0 993251
03:00−8w6148271 0.1 997863
06:00−10wsw3109267 0.0 998332
09:00−8wsw4109042 0.0 998475
12:00−5wsw588698 0.1 9981159
15:00−4wnw697599 0.8 10001389
18:00−8w398663 0.1 1002234
21:00−11nw369241 0.1 1006127
9 march, tue
tue900:00−13wnw259628 0.0 100895
03:00−16nw239722 0.0 101081
06:00−17nw249793 0.0 101190
09:00−13nnw369395 0.1 1013284
12:00−10nnw358696 0.0 1014631
15:00−10nw358498 0.1 1015817
18:00−13nnw2692100 0.1 1016227
21:00−17n289499 0.1 1019234
10 march, wed
wed1000:00−21nnw369729 0.0 1020125
03:00−23nw259814 0.0 1022110
06:00−25nw25988 0.0 1023104
09:00−22nnw35949 0.0 1025255
12:00−17nnw35846 0.0 1026511
15:00−14nnw35773 0.0 1026805
18:00−18nw228915 0.0 102720
21:00−21nw12927 0.0 102820
11 march, thu
thu1100:00−22wnw12950 0.0 102820
03:00−23w22950 0.0 102920
06:00−23wsw22940 0.0 102920
09:00−18sw23870 0.0 1029164
12:00−12ssw24820 0.0 1029340
15:00−10ssw36810 0.0 1028424
18:00−11ssw389485 0.1 1027412
21:00−15s399377 0.1 1027253